Regional Weather Roundup
Issued by NWS

Home | Current Version | Previous Version | Text Only | Print | Product List | Glossary On
Versions: 1 2 3 4 5 6 7 8 9 10 11 12 13 14 15 16 17 18 19 20 21 22 23 24 25 26 27 28 29 30 31 32 33 34 35 36 37 38 39 40 41 42 43 44 45 46 47 48 49 50
000
ASHW40 PHFO 271612
RWRHI

WEATHER ROUNDUP FOR HAWAII
NATIONAL WEATHER SERVICE HONOLULU HI
600 AM HST FRI MAY 27 2016

THIS IS AN AUTOMATED REPORT THAT HAS NOT BEEN QUALITY CONTROLLED.

NOTE..."FAIR" INDICATES FEW OR NO CLOUDS BELOW 12,000 FEET WITH NO
SIGNIFICANT WEATHER AND/OR OBSTRUCTIONS TO VISIBILITY.

* - THESE SITES REPORT LIMITED FIELDS

HIZ001>004-271700-
KAUAI-NIIHAU-

CITY           SKY/WX    TMP DP  RH WIND       PRES   REMARKS
LIHUE APT      MOCLDY    77  70  78 NE16      30.07R
PORT ALLEN*      N/A     73 N/A N/A NE9         N/A
POIPU*           N/A     72 N/A N/A N3          N/A
PRINCEVILLE*     N/A     72 N/A N/A S3          N/A
KOKOLE POINT*  NOT AVBL
MOLOAA DAIRY*    N/A     75  70  83 SE7G16      N/A
WAIMEA HTS*    NOT AVBL
PUU OPAE*      NOT AVBL
PUU LUA*       NOT AVBL
MAKAHA RIDGE*  NOT AVBL
$$

HIZ005>011-271700-
OAHU-

CITY           SKY/WX    TMP DP  RH WIND       PRES   REMARKS
HONOLULU       PTCLDY    72  69  90 N3        30.06R
KALAELOA       CLEAR     72  66  81 NE3       30.07R
KANEOHE MCB    MOCLDY    77  69  76 E6        30.05R
WHEELER FIELD  FAIR      68  66  95 CALM      30.06S
BELLOWS*       NOT AVBL
KAHUKU*        NOT AVBL
WHEELER*       NOT AVBL
WAIANAE HARBOR NOT AVBL
DILLINGHAM*      N/A     64  63  94 MISG        N/A
KAHUKU TRN*      N/A     72  64  78 CALM        N/A
KAWAILOA*        N/A     70  64  83 E3          N/A
KII*             N/A     75  70  83 E14         N/A
MAKUA RANGE*     N/A     81  75  83 E7          N/A
OAHU FOREST NW NOT AVBL
SCHOFIELD BRK*   N/A     81  79  94 MISG        N/A
SCHOFIELD S*   NOT AVBL
WAIANAE VLY*   NOT AVBL
KUAOKALA*      NOT AVBL
HONOULIUULI*   NOT AVBL
MOKUOLOE IS*   NOT AVBL
PALEHUA*       NOT AVBL
WAIAWA PHB*    NOT AVBL
$$

HIZ012>013-271700-
MOLOKAI-

CITY           SKY/WX    TMP DP  RH WIND       PRES   REMARKS
MOLOKAI AIRPT  CLEAR     68  64  87 N5        30.07S
KALAUPAPA      NOT AVBL
MAKAPULAPAI*   NOT AVBL
MOLOKAI 1*     NOT AVBL
PUU ALII*      NOT AVBL
$$

HIZ016-271700-
KAHOOLAWE-

CITY           SKY/WX    TMP DP  RH WIND       PRES   REMARKS
KAHOOLAWE*     NOT AVBL
HAKIOAWA*      NOT AVBL
HONOKANAIA*      N/A     75  66  74 N6G17     29.99S
KANELOA*         N/A     72  64  78 E12G20    30.12R
KEALIALALO*    NOT AVBL
LUA MAKIKA*    NOT AVBL
$$

HIZ014>015-271700-
LANAI-

CITY           SKY/WX    TMP DP  RH WIND       PRES   REMARKS
LANAI CITY     FAIR      68  65  90 N7        30.11R
LANAI 1*       NOT AVBL
$$

HIZ017>028-271700-
MAUI-

CITY           SKY/WX    TMP DP  RH WIND       PRES   REMARKS
KAHULUI        CLEAR     66  64  93 S3        30.05S
KAPALUA-W MAUI PTCLDY    73  63  68 E7        30.07
HANA AIRPORT   NOT AVBL
HANA*            N/A     72 N/A N/A S5          N/A
HALEAKALA SUMM   N/A     45  18  33 NE2G20      N/A
MAALAEA BAY*   NOT AVBL
HALEAKALA*     NOT AVBL
KAUPO GAP*     NOT AVBL
KULA 1*          N/A     48  39  71 E3          N/A
$$

HIZ023>026-271700-
BIG ISLAND OF HAWAII COAST AND LOWER SLOPES-

CITY           SKY/WX    TMP DP  RH WIND       PRES   REMARKS
KAILUA KONA    PTCLDY    74  70  87 NE6       30.03R
HILO           PTCLDY    69  61  75 SW7       30.08R
HONOKAA*         N/A     63 N/A N/A VRB1        N/A
KAWAIHAE MWT*    N/A     73 N/A N/A W1          N/A
KAWAIHAE*      NOT AVBL
SOUTH POINT*     N/A     68 N/A N/A N13         N/A
UPOLU AIRPORT*   N/A    N/A N/A N/A E8          N/A
KAMUELA*       SUNNY     55  54  94 E9        30.15S
HAKALAU*         N/A     45  43  93 SW5G10      N/A
KALOKO-HONOKO* NOT AVBL
PALI 2*          N/A     63  57  82 SW10        N/A
KEALAKOMO*       N/A    N/A N/A N/A VRB6G13     N/A
KAUPULEHU*     NOT AVBL
KAPAPALA*        N/A     57  55  93 N5          N/A
LOWER KAHUKU*  NOT AVBL
PUHE CS*       NOT AVBL
PUHO CS*       NOT AVBL
PTA KEAMUKU*     N/A     57  50  77 CALM        N/A
WAIKOLOA*      NOT AVBL
$$

HIZ027>028-271700-
BIG ISLAND OF HAWAII INTERIOR AND SUMMMITS-

CITY           SKY/WX    TMP DP  RH WIND       PRES   REMARKS
BRADSHAW FIELD CLOUDY    46  39  77 SE5       30.36R
MK VISITOR CEN   N/A     46  25  42 NE6         N/A
MAUNA KEA*       N/A     34   7  32 N22         N/A  WCI  22
MAUNA LOA*     NOT AVBL
MAUNA LOA 1*   NOT AVBL
PTA KIPUKA*      N/A     46  46 100 SE3         N/A
PTA RANGE 17*    N/A     52  46  82 E8          N/A
PTA WEST*        N/A     57  48  72 SE12G18     N/A
NENE CABIN*    NOT AVBL
AHUMOA*        NOT AVBL
PTA PORTABLE*  NOT AVBL
PUU MALI*        N/A    N/A N/A N/A S3          N/A
$$

HIC003-271700-
NORTHWEST ISLANDS-

CITY           SKY/WX    TMP DP  RH WIND       PRES   REMARKS
MIDWAY ISLAND  PTCLDY    72  70  94 NE5       30.07S
MIDWAY NOS*    NOT AVBL
FRENCH FRIGATE NOT AVBL
$$

PHZ110>124-180-271700-
BUOY REPORTS

STATION/POSITION TIME  TEMP    WIND        PRES    WAVE   SWELL
                       AIR SEA DIR/SP/G            HT/PER HT/DIR
                 (UTC) (F)     (DEG/KT/KT) (MB)    (FT/S) (FT/D)
BUOY 51001       1500   75 80   70/ 12/ 16 1016.5F
BUOY 51101       1550   76 79  130/  8/ 10 1017.5R   4/ 8   5/ 60
BUOY 51100       NOT AVBL
BUOY 51002       1550   78 79   90/ 14/ 17 1015.9F   5/ 6   3/110
BUOY 51003       1550   77 80  110/ 10/ 12 1016.6R   4/16   3/200
BUOY 51004       1550   78 79   90/ 12/ 14 1016.7R   6/ 8   5/ 90
BARBERS PT BUOY  NOT AVBL
WAIMEA BAY BUOY  1504      78                N/A     3/ 6
KAILUA BAY BUOY  1511      78                N/A     4/ 5
LANAI BUOY       1515      79                N/A     3/17   2/220
BARBERS PT 2     1603      79                N/A     3/17   2/200
PAUWELA MAUI     1509      78                N/A     4/ 8
HILO             1512      79                N/A     5/ 7
KANEOHE BAY BUOY 1506      77                N/A     4/ 6
HANALEI KAUAI    NOT AVBL
KAHULUI HARBOR   1500   74 79   30/  3/  6 1017.3S
HONOLULU HARBOR  1500   73 79   CALM  /  1 1018.2S
KILO NALU        NOT AVBL
HILO HARBOR      1500   70 78  190/  3/  7 1017.8R
MOKUOLOE         1500   77 80   90/  6/ 10 1017.8R
NAWILIWILI       1500   72 82  250/  8/ 10 1017.6S
WHOTS BUOY       NOT AVBL
BUOY 51028       NOT AVBL
$$

......................KEY........................................
  SKY/WX - SKY CONDITIONS/PRESENT WEATHER
  TMP    - TEMPERATURE IN FAHRENHEIT
  DWPT   - DEWPOINT IN FAHRENHEIT
  RH     - RELATIVE HUMIDITY IN PERCENT
  WIND   - DIRECTION AND SPEED /MPH FOR ISLANDS...KTS FOR BUOYS/
  PRES   - MEAN SEA LEVEL PRESSURE IN INCHES OF HG
  VSB    - VISIBILITY IN MILES
  HX     - HEAT INDEX
  WCI    - WIND CHILL INDEX
  VRB    - VARIABLE WIND DIRECTION
  N/A    - NOT AVAILABLE




USA.gov is the U.S. government's official web portal to all federal, state and local government web resources and services.